EHRDLEAL

Guest
Details From EHRD - Rotterdam
To LEAL - Alicante
Flight Number -
Tags Generated
Created
Modified
Stats Distance 847 nm / 1,569 km
Max Altitude 0 ft / 0 m
Waypoints 5
Social Downloads 3
Likes 0
Share VATSIM

Download

Looking for another format? Having issues loading an existing format? Contact us
Advertisement - Login to hide

Notes

Generated

Route

EHRD GIPEX ASPET R2305 LEAL

ID Type Via Altitude Latitude Longitude Leg Dist Tot Dist Heading (true) Name
O EHRD APT - 0 ft / 0 m 51.95209˚ 4.42824˚ - 0 nm - -
GIPEX FIX - 0 ft / 0 m 47.75750˚ 2.62333˚ 261 nm 261 nm 196° / 195° -
ASPET FIX - 0 ft / 0 m 43.00000˚ 0.97972˚ 293 nm 555 nm 194° / 193° -
R2305 FIX - 0 ft / 0 m 38.28452˚ -0.57500˚ 291 nm 847 nm 195° / 194° -
O LEAL APT - 0 ft / 0 m 38.28452˚ -0.57500˚ 0 nm 847 nm 270° / 270° -

Altitude Profile

Weather

Temperature
Clouds and Precipitation
Forecast for 2017-03-25 12:00 UTC. Updated 16 minutes ago
Winds

EHRD

Details ICAO EHRD (RTM)
Name Rotterdam The Hague
Region Netherlands
Timezone Europe/Amsterdam (UTC+1.0)
Stats Elevation -15 ft / -5 m (AMSL)
Location 51.957468° 4.441662°
Runways 1
Magnetic Variation 0.945° E

METAR

EHRD 250925Z AUTO 05011KT 010V080 9999 NSC 10/02 Q1031 NOSIG

Decode

TAF

TAF EHRD 250505Z 2506/2612 05008KT CAVOK BECMG 2509/2512 05014KT BECMG 2519/2522 05008KT PROB30 TEMPO 2603/2608 4000 BR BECMG 2608/2611 08011KT

Decode

Departure Runways

ID Width Length Bearing (true) Bearing (mag) Surface Threshold Offset Overrun Length
06 148 ft / 45 m 7,201 ft / 2,195 m 56.93° 55.99° Asphalt 656 ft / 200 m 0 ft / 0 m
24 148 ft / 45 m 7,201 ft / 2,195 m 236.95° 236.01° Asphalt 656 ft / 200 m 0 ft / 0 m

LEAL

Details ICAO LEAL (ALC)
Name Alicante
Region Spain
Timezone Europe/Madrid (UTC+1.0)
Stats Elevation 141 ft / 43 m (AMSL)
Location 38.282169° -0.558157°
Runways 1
Magnetic Variation 0.103° E

METAR

LEAL 250930Z 22004KT 160V300 9999 FEW020 14/03 Q1017 NOSIG

Decode

TAF

TAF TAF LEAL 250500Z 2506/2606 25008KT CAVOK TX21/2512Z TN07/2506Z BECMG 2510/2512 18012KT PROB30 TEMPO 2514/2518 17015G25KT BECMG 2518/2520 VRB04KT

Decode

Destination Runways

ID Width Length Bearing (true) Bearing (mag) Surface Threshold Offset Overrun Length
10 148 ft / 45 m 9,799 ft / 2,987 m 100.07° 99.97° Asphalt 0 ft / 0 m 164 ft / 50 m
28 148 ft / 45 m 9,799 ft / 2,987 m 280.09° 279.99° Asphalt 0 ft / 0 m 197 ft / 60 m

Approach Navaids

Runway Type Ident Frequency Range Bearing (true) Bearing (mag) Slope Elevation
10 Localiser IAT 110.30 MHz 18 nm / 33 km 100.09° 99.99° - 29 ft / 9 m (AMSL)
10 Glidescope IAT 110.30 MHz 10 nm / 19 km 100.09° 99.99° 3.00° 129 ft / 39 m (AMSL)
10 DME IAT 110.30 MHz 18 nm / 33 km - - - 129 ft / 39 m (AMSL)

Popular Alternatives